Weather History for Ely, MN

Change the Weather History Date:

Tuesday, November 29, 2011

  Actual Average Record
Temperature  
Mean Temperature 18 °F -  
Max Temperature 30 °F 28 °F 51 °F (1998)
Min Temperature 6 °F 15 °F -9 °F (2013)
Degree Days  
Heating Degree Days 47    
Moisture  
Dew Point 12 °F    
Average Humidity 72    
Maximum Humidity 92    
Minimum Humidity 44    
Precipitation  
Precipitation 0.00 in - - ()
Sea Level Pressure  
Sea Level Pressure 30.23 in    
Wind  
Wind Speed 3 mph (NW)    
Max Wind Speed 7 mph    
Max Gust Speed -    
Visibility 10 miles    
Events      
Averages and records for this station are not official NWS values.
T = Trace of Precipitation, MM = Missing Value Source: NWS Daily Summary

Daily Weather History Graph

Daily Weather History Graph

Search for Another Location

Airport:

Trip Planner

Search our weather history database for the weather conditions in past years. The results will help you decide how hot, cold, wet, or windy it might be!

Date:

Astronomy

Nov. 29, 2011 Rise Set
Actual Time 7:32 AM CST 4:18 PM CST
Civil Twilight 6:57 AM CST 4:53 PM CST
Nautical Twilight 6:18 AM CST 5:32 PM CST
Astronomical Twilight 5:41 AM CST 6:09 PM CST
Moon 11:11 AM CST (11/29) 9:21 PM CST (11/29)
Length of Visible Light 9h 56m
Length of Day
8h 45m
Waxing Crescent, 24% of the Moon is Illuminated
Nov 29
Waxing Crescent
Dec 2
First Quarter
Dec 10
Full
Dec 17
Last Quarter
Dec 24
New

Hourly Weather History & Observations

Time (CST) Temp. Windchill Dew Point Humidity Pressure Visibility Wind Dir Wind Speed Gust Speed Precip Events Conditions
12:12 AM 24.8 °F 17.9 °F 19.4 °F 80% 30.18 in 10.0 mi WNW 5.8 mph - N/A   Clear
12:33 AM 24.8 °F 17.9 °F 17.6 °F 74% 30.19 in 10.0 mi NW 5.8 mph - N/A   Clear
12:52 AM 24.8 °F 19.1 °F 17.6 °F 74% 30.21 in 10.0 mi NW 4.6 mph - N/A   Clear
1:12 AM 23.0 °F 17.0 °F 17.6 °F 80% 30.21 in 10.0 mi WNW 4.6 mph - N/A   Clear
1:33 AM 21.2 °F 14.9 °F 17.6 °F 86% 30.22 in 10.0 mi WNW 4.6 mph - N/A   Clear
1:53 AM 21.2 °F 16.4 °F 17.6 °F 86% 30.22 in 10.0 mi NW 3.5 mph - N/A   Clear
2:12 AM 21.2 °F 14.9 °F 17.6 °F 86% 30.23 in 10.0 mi WNW 4.6 mph - N/A   Clear
2:33 AM 21.2 °F 14.9 °F 17.6 °F 86% 30.24 in 10.0 mi WNW 4.6 mph - N/A   Clear
2:52 AM 21.2 °F 13.6 °F 15.8 °F 80% 30.25 in 10.0 mi NW 5.8 mph - N/A   Clear
3:12 AM 21.2 °F 12.6 °F 15.8 °F 80% 30.25 in 10.0 mi NNW 6.9 mph - N/A   Clear
3:33 AM 21.2 °F 14.9 °F 14.0 °F 74% 30.25 in 10.0 mi NNW 4.6 mph - N/A   Clear
3:53 AM 19.4 °F 12.8 °F 12.2 °F 74% 30.25 in 10.0 mi NNW 4.6 mph - N/A   Clear
4:12 AM 19.4 °F 11.5 °F 12.2 °F 74% 30.25 in 10.0 mi NNW 5.8 mph - N/A   Clear
4:33 AM 19.4 °F 14.3 °F 10.4 °F 68% 30.26 in 10.0 mi NNW 3.5 mph - N/A   Clear
4:52 AM 17.6 °F 12.3 °F 10.4 °F 73% 30.26 in 10.0 mi NNW 3.5 mph - N/A   Clear
5:12 AM 17.6 °F 12.3 °F 10.4 °F 73% 30.26 in 10.0 mi NNW 3.5 mph - N/A   Clear
5:33 AM 17.6 °F 12.3 °F 10.4 °F 73% 30.26 in 10.0 mi NNW 3.5 mph - N/A   Clear
5:53 AM 15.8 °F 10.2 °F 10.4 °F 79% 30.26 in 10.0 mi NNW 3.5 mph - N/A   Clear
6:12 AM 14.0 °F - 8.6 °F 79% 30.27 in 10.0 mi Calm Calm - N/A   Clear
6:33 AM 10.4 °F - 6.8 °F 85% 30.28 in 10.0 mi Calm Calm - N/A   Clear
6:52 AM 8.6 °F - 6.8 °F 92% 30.29 in 10.0 mi Calm Calm - N/A   Clear
7:13 AM 6.8 °F - 5.0 °F 92% 30.29 in 10.0 mi Calm Calm - N/A   Clear
7:33 AM 8.6 °F - 6.8 °F 92% 30.30 in 10.0 mi Calm Calm - N/A   Clear
7:52 AM 6.8 °F - 3.2 °F 85% 30.30 in 10.0 mi Calm Calm - N/A   Clear
8:13 AM 6.8 °F - 3.2 °F 85% 30.29 in 10.0 mi Calm Calm - N/A   Clear
8:33 AM 8.6 °F - 6.8 °F 92% 30.30 in 10.0 mi Calm Calm - N/A   Clear
8:52 AM 10.4 °F - 6.8 °F 85% 30.30 in 10.0 mi Calm Calm - N/A   Clear
9:13 AM 15.8 °F 10.2 °F 10.4 °F 79% 30.30 in 10.0 mi West 3.5 mph - N/A   Clear
9:33 AM 17.6 °F 12.3 °F 12.2 °F 79% 30.31 in 10.0 mi West 3.5 mph - N/A   Clear
9:52 AM 19.4 °F - 12.2 °F 74% 30.31 in 10.0 mi Calm Calm - N/A   Clear
10:13 AM 21.2 °F - 12.2 °F 68% 30.31 in 10.0 mi Calm Calm - N/A   Clear
10:33 AM 21.2 °F - 12.2 °F 68% 30.30 in 10.0 mi Calm Calm - N/A   Clear
10:52 AM 23.0 °F - 12.2 °F 63% 30.30 in 10.0 mi Calm Calm - N/A   Clear
11:13 AM 24.8 °F 20.5 °F 12.2 °F 59% 30.28 in 10.0 mi WNW 3.5 mph - N/A   Clear
11:32 AM 24.8 °F - 10.4 °F 54% 30.26 in 10.0 mi Calm Calm - N/A   Clear
11:53 AM 24.8 °F - 12.2 °F 59% 30.24 in 10.0 mi Calm Calm - N/A   Clear
12:13 PM 26.6 °F 22.6 °F 12.2 °F 55% 30.22 in 10.0 mi SE 3.5 mph - N/A   Clear
12:32 PM 26.6 °F - 12.2 °F 55% 30.21 in 10.0 mi Calm Calm - N/A   Clear
12:53 PM 26.6 °F - 12.2 °F 55% 30.21 in 10.0 mi Calm Calm - N/A   Clear
1:13 PM 28.4 °F - 12.2 °F 51% 30.21 in 10.0 mi Calm Calm - N/A   Clear
1:32 PM 28.4 °F 24.6 °F 10.4 °F 47% 30.20 in 10.0 mi West 3.5 mph - N/A   Clear
1:53 PM 28.4 °F - 12.2 °F 51% 30.20 in 10.0 mi Calm Calm - N/A   Clear
2:13 PM 30.2 °F 26.7 °F 10.4 °F 44% 30.19 in 10.0 mi West 3.5 mph - N/A   Clear
2:32 PM 30.2 °F 25.4 °F 12.2 °F 47% 30.19 in 10.0 mi West 4.6 mph - N/A   Clear
2:52 PM - - 12.2 °F N/A% 30.18 in 10.0 mi West 5.8 mph - N/A   Clear
3:13 PM 30.2 °F - 10.4 °F 44% 30.17 in 10.0 mi Calm Calm - N/A   Clear
3:32 PM 30.2 °F - 12.2 °F 47% 30.16 in 10.0 mi Calm Calm - N/A   Clear
3:53 PM 28.4 °F - 12.2 °F 51% 30.15 in 10.0 mi Calm Calm - N/A   Clear
4:12 PM 26.6 °F - 14.0 °F 59% 30.14 in 10.0 mi Calm Calm - N/A   Clear
4:32 PM 24.8 °F - 12.2 °F 59% 30.13 in 10.0 mi Calm Calm - N/A   Clear
4:53 PM 21.2 °F - 15.8 °F 80% 30.12 in 10.0 mi Calm Calm - N/A   Clear
5:12 PM 15.8 °F - 12.2 °F 86% 30.11 in 10.0 mi Calm Calm - N/A   Clear
5:33 PM 17.6 °F - 14.0 °F 86% 30.11 in 10.0 mi Calm Calm - N/A   Clear
5:53 PM 15.8 °F - 12.2 °F 86% 30.10 in 10.0 mi Calm Calm - N/A   Clear
6:12 PM 17.6 °F 10.7 °F 12.2 °F 79% 30.09 in 10.0 mi South 4.6 mph - N/A   Clear
6:33 PM 19.4 °F 11.5 °F 12.2 °F 74% 30.07 in 10.0 mi SSW 5.8 mph - N/A   Clear
6:53 PM 21.2 °F 14.9 °F 10.4 °F 63% 30.06 in 10.0 mi SSW 4.6 mph - N/A   Clear
7:12 PM 17.6 °F 12.3 °F 10.4 °F 73% 30.06 in 10.0 mi SW 3.5 mph - N/A   Clear
7:33 PM 17.6 °F 12.3 °F 10.4 °F 73% 30.04 in 10.0 mi SW 3.5 mph - N/A   Clear
7:53 PM 12.2 °F - 8.6 °F 85% 30.04 in 10.0 mi Calm Calm - N/A   Clear
8:12 PM 14.0 °F - 8.6 °F 79% 30.04 in 10.0 mi Calm Calm - N/A   Clear
8:33 PM 10.4 °F 4.0 °F 6.8 °F 85% 30.02 in 10.0 mi SSW 3.5 mph - N/A   Clear
8:53 PM 10.4 °F - 6.8 °F 85% 30.02 in 10.0 mi Calm Calm - N/A   Clear
9:12 PM 15.8 °F - 8.6 °F 73% 30.01 in 10.0 mi Calm Calm - N/A   Clear
9:33 PM 10.4 °F - 6.8 °F 85% 30.00 in 10.0 mi Calm Calm - N/A   Clear
9:53 PM 15.8 °F 10.2 °F 8.6 °F 73% 29.98 in 10.0 mi SSW 3.5 mph - N/A   Clear
10:12 PM 15.8 °F 10.2 °F 8.6 °F 73% 29.97 in 10.0 mi SSW 3.5 mph - N/A   Clear
10:33 PM 14.0 °F 8.2 °F 6.8 °F 73% 29.97 in 10.0 mi SSW 3.5 mph - N/A   Clear
10:53 PM 15.8 °F - 6.8 °F 68% 29.97 in 10.0 mi Calm Calm - N/A   Clear
11:12 PM 10.4 °F - 6.8 °F 85% 29.97 in 10.0 mi Calm Calm - N/A   Clear
11:33 PM 8.6 °F - 5.0 °F 85% 29.96 in 10.0 mi Calm Calm - N/A   Clear
11:52 PM 8.6 °F 2.0 °F 5.0 °F 85% 29.95 in 10.0 mi SSE 3.5 mph - N/A   Clear